Powrót do katalogu

THOR ABLESTAR DEB

AktywnyLEO
NORAD 133·DEBRIS·🇺🇸 United States

Wystrzelony Jun 29, 1961 z Cape Canaveral Space Force Station

Loading…

Następne Przeloty (najbliższe 24 godziny)

TLE

ŚwieżeSource: Space-Track

Epoka: Sep 14, 2026, 05:21 UTC

1 00133U 61015T   26257.22331571  .00000474  00000-0  24292-3 0  9993
2 00133  67.1165 353.2735 0044458  64.8613 295.7087 14.23141474346154

Śledź THOR ABLESTAR DEB w czasie rzeczywistym z AllMySat

Download on the App Store